Location: Praha
(50.0830°N, 14.4670°E)
Time: 14:53:31
(UTC+01:00)

ISS - Pass Details

Date: 14 March 2019
Orbit: 408 x 411 km, 51.6° (Epoch: 25 March)

Event Time Altitude Azimuth Distance (km) Brightness Sun altitude
Exits shadow 04:50:49 31° 231° (SW) 746 -3.0 -14.9°
Maximum altitude 04:51:19 33° 212° (SSW) 716 -3.0 -14.8°
Drops below altitude 10° 04:54:18 10° 146° (SSE) 1,468 -0.7 -14.3°
Sets 04:56:30 0° 137° (SE) 2,326 0.5 -14.0°
